Location: Moscow Brook
(40.1887°N, 81.9821°W)
Time: 00:19:04
(UTC+00:00)

Daily predictions for brighter satellites

Satellite Brightness Start Highest point End
(mag) Time Altitude Azimuth Time Altitude Azimuth Time Altitude Azimuth
MOS 1 Rocket 4.3 00:02:36 10° S 00:06:38 42° W 00:10:43 10° NNW
SPOT 1/Viking Rocket 4.5 00:16:29 10° S 00:21:25 48° W 00:26:26 10° NNW
Cosmos 1943 Rocket 3.6 00:18:05 10° S 00:20:25 23° SSE 00:20:25 23° SSE
Timation 2 Rocket 4.3 00:18:13 10° S 00:24:43 49° ESE 00:24:54 49° ESE
Tiangong -0.2 00:22:42 10° WNW 00:24:28 30° WNW 00:24:28 30° WNW
DMSP B5D1-3 4.4 00:25:24 29° NNE 00:28:04 89° ESE 00:33:11 10° SSW
Cosmos 1513 Rocket 4.4 00:22:18 10° S 00:28:31 78° E 00:34:53 10° N
COSMO-SKYMED 1 4.2 00:29:28 10° N 00:33:07 31° WNW 00:36:44 10° SW
Cosmos 1140 Rocket 3.8 00:29:33 10° SSW 00:34:42 65° WNW 00:36:53 34° N
SL-4 R/B 4.1 00:32:06 10° NW 00:33:09 17° NNW 00:33:09 17° NNW
Meteor 2-12 Rocket 4.4 00:29:25 10° N 00:35:34 85° W 00:41:38 10° S
Cosmos 1833 Rocket 2.6 00:38:41 10° NNW 00:44:22 87° WSW 00:44:22 87° WSW
Cosmos 1975 Rocket 4.3 00:43:34 10° NNW 00:47:36 40° W 00:50:52 15° SSW
ATLAS 5 CENTAUR R/B 3.9 00:48:31 10° NNW 00:49:26 16° NNW 00:49:26 16° NNW
Resurs 01 Rocket 4.1 00:58:12 14° NNW 00:58:12 14° NNW 00:58:52 10° NNW
Cosmos 2278 Rocket 4.3 01:23:48 10° SW 01:25:12 18° SW 01:25:12 18° SW
USA 281 4.1 01:39:32 44° WSW 01:39:32 44° WSW 01:45:38 10° NW
USA 267 4.3 08:38:29 10° NE 08:42:21 39° NE 08:42:21 39° NE
Cosmos 2360 Rocket 4.5 09:04:26 14° NNE 09:04:26 14° NNE 09:05:15 10° NNE
ACS3 Solar Sail 3.6 08:58:30 10° NNE 09:00:18 21° NNE 09:00:18 21° NNE
USA 234 3.7 09:13:12 10° ESE 09:19:32 54° NE 09:20:56 46° N
CZ-2C R/B 3.7 09:16:02 10° NNE 09:19:10 37° NE 09:19:10 37° NE
ARGOS 4.0 09:16:57 10° NNE 09:20:39 44° NNE 09:20:39 44° NNE
SL-16 R/B 4.5 09:24:07 10° S 09:25:07 15° S 09:25:07 15° S
Cosmos 2219 Rocket 3.6 09:42:01 26° N 09:42:01 26° N 09:44:40 10° N
Cosmos 2100 Rocket 4.3 09:42:19 10° N 09:48:25 63° E 09:54:31 10° SSE
NOSS 3-1 (C) 3.1 09:49:30 57° N 09:49:30 57° N 09:53:59 10° NNE
ADEOS Rocket 4.2 09:42:52 10° N 09:46:25 30° NNW 09:46:25 30° NNW
COSMOS 2428 2.7 09:47:51 40° SSW 09:49:58 81° ESE 09:55:41 10° NNE
Cosmos 2322 3.5 09:56:05 57° SW 09:57:13 76° WNW 10:02:56 10° NNE
USA 59 Rocket 2.0 10:08:02 11° NNE 10:08:02 11° NNE 10:08:13 10° NNE
Cosmos 1703 Rocket 4.1 10:01:43 10° S 10:05:57 57° E 10:10:14 10° NNE
Cosmos 921 Rocket 3.1 10:07:01 61° SSW 10:07:01 61° SSW 10:10:53 10° S
FengYun 1-2 T 4.5 10:01:05 10° NNE 10:06:38 69° ESE 10:12:13 10° S
Meteor 2-21 4.3 10:02:51 10° S 10:08:57 80° W 10:15:03 10° N
Cosmos 1939 Rocket 2.9 10:05:08 10° N 10:08:20 60° N 10:08:20 60° N
Cosmos 1459 Rocket 4.0 10:02:38 10° N 10:09:03 83° E 10:15:23 10° S
BlueWalker 3 2.8 10:09:09 37° NNE 10:09:27 37° NNE 10:12:50 10° ESE
Cosmos 1727 Rocket 4.0 10:07:21 10° SSW 10:13:20 53° W 10:19:25 10° N
Cosmos 1269 Rocket 3.9 10:10:45 18° NNW 10:14:49 88° ENE 10:20:06 10° SSE
Cosmos 1725 Rocket 4.3 10:13:41 10° N 10:20:00 69° E 10:26:16 10° SSE
Cosmos 2278 Rocket 2.9 10:18:24 10° NNW 10:23:58 55° ENE 10:29:29 10° SE
Cosmos 2237 Rocket 2.6 10:19:56 10° S 10:25:31 65° ESE 10:31:08 10° NNE
USA 267 4.2 10:21:55 10° NE 10:27:25 30° NNW 10:29:41 24° NW
Cosmos 1802 Rocket 4.0 10:21:57 10° N 10:28:21 88° E 10:34:37 10° S
Cosmos 2292 Rocket 3.9 10:24:57 10° S 10:28:50 68° E 10:33:54 10° NNE
Meteor 2-16 Rocket 4.4 10:25:24 10° S 10:31:29 88° W 10:37:38 10° N
NOSS 3-1 (A) 2.7 10:29:28 18° SW 10:32:56 80° NW 10:38:19 10° NNE
NOSS 2-1 (E) 4.4 10:36:46 23° NNW 10:36:46 23° NNW 10:38:32 10° N
CZ-4 R/B 3.8 10:30:58 10° NNE 10:35:53 88° E 10:40:39 10° SSW
Meteor 1-24 Rocket 3.7 10:30:35 10° SSW 10:36:22 67° W 10:41:59 10° N
Cosmos 2173 Rocket 4.0 10:32:41 10° NNW 10:38:35 53° W 10:44:27 10° SSW
SJ-11-01 4.2 10:36:35 10° N 10:41:12 59° WNW 10:45:48 10° SSW
Cosmos 44 Rocket 3.3 10:39:37 18° NW 10:43:26 71° WSW 10:48:33 10° SSE
ACS3 Solar Sail 3.6 10:43:46 10° NNW 10:44:27 12° NW 10:44:27 12° NW
Cosmos 1908 Rocket 3.6 10:42:35 10° NNW 10:46:56 55° W 10:51:13 10° S
Meteor 2-5 Rocket 3.8 10:42:35 10° SSW 10:48:26 59° WNW 10:54:13 10° N
Gbstr 26 Del rocket 4.3 10:47:30 24° WNW 10:49:51 36° NNW 10:55:18 10° NE
NOAA 12 4.0 10:45:40 10° N 10:51:00 78° WNW 10:56:19 10° SSW
Cosmos 1300 Rocket 3.5 10:46:58 10° N 10:51:19 88° E 10:55:36 10° S
Cosmos 2123 Rocket 4.2 10:48:43 10° SSW 10:54:42 48° WNW 11:00:40 10° N
CZ-2C R/B 3.9 10:55:21 10° NNW 10:58:23 17° WNW 10:58:23 17° WNW
Cosmos 1943 Rocket 2.1 10:54:00 10° NNW 10:59:31 74° WSW 11:04:59 10° SSE
Cosmos 1140 Rocket 3.9 10:56:06 10° NW 11:00:49 39° WSW 11:05:31 10° S
SJ 16-02 3.4 10:57:38 10° N 11:01:18 26° ENE 11:04:55 10° ESE
USA 234 3.7 10:56:22 10° SSE 11:02:35 45° SW 11:08:18 12° WNW
Cosmos 1869 4.4 11:02:52 10° N 11:06:11 40° E 11:09:28 10° SSE
Cosmos 2016 Rocket 4.2 11:03:51 10° NNW 11:10:00 52° W 11:16:06 10° SSW
Iridium 4 Rocket 3.4 11:08:10 10° NNW 11:12:08 38° W 11:15:57 10° SSW
Cosmos 2346 Rocket 4.5 11:06:02 10° S 11:12:13 88° W 11:18:22 10° N
CBERS-1 4.4 11:13:52 10° NNE 11:18:59 72° ESE 11:24:04 10° S
Cosmos 1484 Rocket 2.4 11:16:53 10° N 11:20:26 72° WNW 11:23:56 10° SSW
COSMO-SKYMED 1 2.6 11:17:31 10° S 11:21:31 49° W 11:25:32 10° NNW
Cosmos 1190 Rocket 4.3 11:16:49 10° NNW 11:22:05 71° ENE 11:27:17 10° SSE
IRS-1D 4.2 11:19:09 10° N 11:23:24 29° WNW 11:27:37 10° SW
Cosmos 2056 Rocket 3.7 11:18:29 10° SSW 11:23:52 85° ESE 11:29:18 10° NNE
SL-16 R/B 3.1 11:18:26 10° S 11:23:56 54° ESE 11:29:28 10° NNE
SKYMED 2 4.3 11:22:23 10° SSW 11:26:16 32° W 11:30:10 10° NNW
Cosmos 371 Rocket 4.4 11:23:16 10° N 11:27:57 47° ENE 11:32:35 10° SE
USA 276 2.8 11:27:18 11° WNW 11:29:32 31° SW 11:32:07 10° SSE
Cosmos 2061 Rocket 4.1 11:25:22 10° NNW 11:31:22 54° W 11:37:21 10° SSW
Aureole 3 Rocket 3.8 11:27:26 10° N 11:32:02 83° E 11:38:30 10° S
COSMOS 2428 4.2 11:31:23 10° W 11:34:54 16° NW 11:38:25 10° N
Aureole 3 4.5 11:31:17 10° SSW 11:37:44 61° W 11:43:27 10° N
SAR-Lupe-4 4.4 11:36:09 10° NNE 11:39:40 55° E 11:43:08 10° S
Cosmos 1954 Rocket 4.1 11:34:50 10° NNW 11:40:03 83° ENE 11:45:13 10° SSE
Cosmos 1371 Rocket 4.0 11:37:10 10° SSW 11:42:23 69° WNW 11:47:42 10° NNE
